Location: �perlecques
(50.8057°N, 2.1521°E)
Time: 11:03:34
(UTC+00:00)

Cosmos 1408 Rocket - Pass Details

Date: 09 April 2020
Orbit: 600 x 632 km, 82.6° (Epoch: 25 May)

Event Time Altitude Azimuth Distance (km) Brightness Sun altitude
Rises 21:24:51 0° 351° (N) 2,934 8.0 -23.1°
Reaches altitude 10° 21:27:08 10° 355° (N) 2,018 6.9 -23.3°
Enters shadow 21:31:24 65° 62° (ENE) 691 3.6 -23.7°
